Location: Unspecified
(0.0000°N, 0.0000°E)
Time: 10:51:19
(UTC+00:00)

A-11 Canister half - Pass Details

Date: 04 August 2021
Orbit: 1515 x 1685 km, 47.2° (Epoch: 27 September)

Event Time Altitude Azimuth Distance (km) Brightness Sun altitude
Rises 00:31:24 0° 327° (NNW) 4,925 - -71.7°
Reaches altitude 10° 00:34:37 10° 330° (NNW) 3,934 - -71.4°
Maximum altitude 00:44:38 66° 50° (NE) 1,781 - -70.3°
Drops below altitude 10° 00:54:24 10° 131° (SE) 3,847 - -69.1°
Sets 00:57:30 0° 133° (SE) 4,812 - -68.6°
